EZY7Q EGKK-EGCC

Flight info

Callsign EZY7Q
Flight time 0h 35m
Altitude 41000
Route LAM1Z LAM N57 WELIN T420 ELVOS ELVOS1M
Aircraft A320/M-V/N

Departure

Time 2026-05-04 11:59
Airport London Gatwick Airport (EGKK)

Arrival

Time 2026-05-04 12:34
Airport Manchester Airport (EGCC)
Time Latitude Longitude Altitude Speed Heading
2026-05-04 11:33 51.15853 -0.17518 204 ft 0 kts 347°
2026-05-04 11:41 51.15843 -0.17515 211 ft 4 kts 352°
2026-05-04 11:41 51.15817 -0.17513 207 ft 4 kts 356°
2026-05-04 11:42 51.15796 -0.17505 214 ft 4 kts 337°
2026-05-04 11:42 51.15773 -0.17486 213 ft 4 kts 309°
2026-05-04 11:42 51.15767 -0.17464 215 ft 0 kts 257°
2026-05-04 11:45 51.15757 -0.17521 209 ft 13 kts 254°
2026-05-04 11:45 51.15738 -0.17657 205 ft 12 kts 254°
2026-05-04 11:45 51.15721 -0.17776 204 ft 10 kts 259°
2026-05-04 11:45 51.15708 -0.17881 204 ft 9 kts 255°
2026-05-04 11:46 51.15696 -0.17971 204 ft 8 kts 258°
2026-05-04 11:46 51.15684 -0.18059 207 ft 9 kts 256°
2026-05-04 11:46 51.15667 -0.18170 208 ft 12 kts 254°
2026-05-04 11:46 51.15608 -0.18246 207 ft 11 kts 211°
2026-05-04 11:47 51.15510 -0.18316 204 ft 17 kts 183°
2026-05-04 11:47 51.15423 -0.18290 210 ft 11 kts 168°
2026-05-04 11:47 51.15343 -0.18260 204 ft 13 kts 167°
2026-05-04 11:47 51.15245 -0.18227 211 ft 16 kts 167°
2026-05-04 11:48 51.15186 -0.18272 212 ft 10 kts 255°
2026-05-04 11:48 51.15172 -0.18413 213 ft 16 kts 257°
2026-05-04 11:48 51.15152 -0.18577 204 ft 14 kts 257°
2026-05-04 11:48 51.15132 -0.18722 204 ft 13 kts 258°
2026-05-04 11:49 51.15112 -0.18853 215 ft 12 kts 254°
2026-05-04 11:49 51.15081 -0.19055 210 ft 19 kts 256°
2026-05-04 11:49 51.15052 -0.19257 209 ft 18 kts 254°
2026-05-04 11:49 51.15029 -0.19444 217 ft 19 kts 260°
2026-05-04 11:50 51.14998 -0.19648 214 ft 18 kts 253°
2026-05-04 11:50 51.14975 -0.19837 213 ft 17 kts 259°
2026-05-04 11:50 51.14952 -0.20010 209 ft 15 kts 257°
2026-05-04 11:50 51.14932 -0.20166 206 ft 14 kts 259°
2026-05-04 11:51 51.14913 -0.20305 215 ft 12 kts 257°
2026-05-04 11:51 51.14897 -0.20421 214 ft 11 kts 257°
2026-05-04 11:51 51.14881 -0.20531 210 ft 9 kts 257°
2026-05-04 11:51 51.14867 -0.20625 209 ft 8 kts 257°
2026-05-04 11:52 51.14847 -0.20775 204 ft 20 kts 258°
2026-05-04 11:52 51.14824 -0.20935 216 ft 13 kts 256°
2026-05-04 11:52 51.14806 -0.21069 205 ft 11 kts 258°
2026-05-04 11:52 51.14784 -0.21183 207 ft 10 kts 246°
2026-05-04 11:53 51.14769 -0.21285 211 ft 9 kts 257°
2026-05-04 11:53 51.14760 -0.21346 205 ft 9 kts 255°
2026-05-04 11:53 51.14697 -0.21398 211 ft 8 kts 168°
2026-05-04 11:53 51.14659 -0.21354 213 ft 6 kts 136°
2026-05-04 11:55 51.14608 -0.21323 207 ft 0 kts 167°
2026-05-04 11:56 51.14594 -0.21318 216 ft 11 kts 167°
2026-05-04 11:56 51.14519 -0.21217 214 ft 14 kts 102°
2026-05-04 11:57 51.14527 -0.21113 214 ft 0 kts 78°
2026-05-04 11:58 51.14529 -0.21098 210 ft 9 kts 78°
2026-05-04 11:58 51.14611 -0.20526 211 ft 97 kts 77°
2026-05-04 11:58 51.14811 -0.19098 211 ft 165 kts 76°
2026-05-04 11:59 51.15002 -0.17204 672 ft 190 kts 83°
2026-05-04 11:59 51.15156 -0.15030 1547 ft 198 kts 79°
2026-05-04 11:59 51.15481 -0.12786 2360 ft 213 kts 75°
2026-05-04 11:59 51.15871 -0.10397 2829 ft 235 kts 75°
2026-05-04 12:00 51.16307 -0.07764 3340 ft 255 kts 71°
2026-05-04 12:00 51.17221 -0.05297 4132 ft 263 kts 51°
2026-05-04 12:00 51.18379 -0.02979 4801 ft 271 kts 52°
2026-05-04 12:00 51.19530 -0.00636 4961 ft 272 kts 52°
2026-05-04 12:01 51.20690 0.01748 5039 ft 272 kts 52°
2026-05-04 12:01 51.21858 0.04165 5029 ft 272 kts 52°
2026-05-04 12:02 51.31210 0.12303 7474 ft 283 kts
2026-05-04 12:03 51.33184 0.12460 7971 ft 285 kts
2026-05-04 12:03 51.34503 0.12569 8318 ft 287 kts
2026-05-04 12:03 51.36150 0.12712 8734 ft 289 kts
2026-05-04 12:03 51.38174 0.12886 9262 ft 291 kts
2026-05-04 12:04 51.40187 0.13059 9790 ft 293 kts
2026-05-04 12:04 51.42229 0.13234 10260 ft 296 kts
2026-05-04 12:04 51.44290 0.13411 10745 ft 298 kts
2026-05-04 12:04 51.46375 0.13592 11248 ft 300 kts
2026-05-04 12:05 51.48470 0.13773 11752 ft 303 kts
2026-05-04 12:05 51.50573 0.13953 12261 ft 305 kts
2026-05-04 12:05 51.52712 0.14136 12782 ft 308 kts
2026-05-04 12:05 51.54869 0.14323 12991 ft 311 kts
2026-05-04 12:06 51.57025 0.14513 13136 ft 308 kts
2026-05-04 12:06 51.59181 0.14701 13680 ft 312 kts
2026-05-04 12:06 51.60974 0.14832 14085 ft 314 kts 358°
2026-05-04 12:06 51.63144 0.14418 14568 ft 315 kts 344°
2026-05-04 12:07 51.65199 0.13180 15061 ft 318 kts 330°
2026-05-04 12:07 51.67039 0.11154 15568 ft 325 kts 316°
2026-05-04 12:07 51.68656 0.08546 16076 ft 333 kts 312°
2026-05-04 12:07 51.70292 0.05844 16606 ft 341 kts 312°
2026-05-04 12:08 51.71973 0.03076 17149 ft 349 kts 313°
2026-05-04 12:08 51.73687 0.00257 17695 ft 355 kts 313°
2026-05-04 12:08 51.75433 -0.02618 18245 ft 362 kts 313°
2026-05-04 12:08 51.77211 -0.05541 18735 ft 368 kts 313°
2026-05-04 12:09 51.79015 -0.08515 19223 ft 373 kts 313°
2026-05-04 12:09 51.80842 -0.11532 19712 ft 378 kts 313°
2026-05-04 12:09 51.82689 -0.14586 20215 ft 381 kts 312°
2026-05-04 12:09 51.84546 -0.17661 20693 ft 384 kts 312°
2026-05-04 12:10 51.86415 -0.20759 21223 ft 386 kts 312°
2026-05-04 12:10 51.88298 -0.23892 21747 ft 389 kts 312°
2026-05-04 12:10 51.90188 -0.27040 22283 ft 391 kts 312°
2026-05-04 12:10 51.92089 -0.30207 22835 ft 393 kts 312°
2026-05-04 12:11 51.93977 -0.33355 23371 ft 395 kts 312°
2026-05-04 12:11 51.95893 -0.36555 23888 ft 396 kts 312°
2026-05-04 12:11 51.97815 -0.39769 24359 ft 397 kts 311°
2026-05-04 12:11 51.99741 -0.42988 24838 ft 398 kts 311°
2026-05-04 12:12 52.01669 -0.46212 25328 ft 398 kts 311°
2026-05-04 12:12 52.03596 -0.49445 25823 ft 398 kts 311°
2026-05-04 12:12 52.05539 -0.52717 26019 ft 407 kts 311°
2026-05-04 12:12 52.07486 -0.55997 26048 ft 398 kts 311°
2026-05-04 12:13 52.09393 -0.59211 26060 ft 392 kts 311°
2026-05-04 12:14 52.22542 -0.81501 26057 ft 389 kts 311°
2026-05-04 12:15 52.24103 -0.84061 26057 ft 390 kts 316°
2026-05-04 12:15 52.26268 -0.86745 26058 ft 392 kts 326°
2026-05-04 12:15 52.28613 -0.89069 26052 ft 392 kts 327°
2026-05-04 12:15 52.30944 -0.91380 26053 ft 392 kts 327°
2026-05-04 12:16 52.33273 -0.93698 26056 ft 392 kts 327°
2026-05-04 12:16 52.35604 -0.96024 26061 ft 392 kts 327°
2026-05-04 12:16 52.37932 -0.98349 26060 ft 392 kts 327°
2026-05-04 12:16 52.40261 -1.00679 26063 ft 392 kts 327°
2026-05-04 12:17 52.42592 -1.03017 26060 ft 396 kts 327°
2026-05-04 12:17 52.44955 -1.05397 26054 ft 409 kts 327°
2026-05-04 12:17 52.47384 -1.07846 26038 ft 407 kts 327°
2026-05-04 12:17 52.49775 -1.10247 25678 ft 399 kts 327°
2026-05-04 12:18 52.52134 -1.12609 25207 ft 395 kts 327°
2026-05-04 12:18 52.54464 -1.14945 24715 ft 391 kts 327°
2026-05-04 12:18 52.56780 -1.17277 24232 ft 388 kts 327°
2026-05-04 12:18 52.59075 -1.19592 23746 ft 386 kts 327°
2026-05-04 12:19 52.61353 -1.21895 23215 ft 383 kts 327°
2026-05-04 12:19 52.63613 -1.24185 22691 ft 380 kts 327°
2026-05-04 12:19 52.65856 -1.26462 22187 ft 377 kts 327°
2026-05-04 12:19 52.68088 -1.28723 21714 ft 375 kts 327°
2026-05-04 12:20 52.70298 -1.30959 21238 ft 372 kts 327°
2026-05-04 12:20 52.72503 -1.33194 20781 ft 369 kts 327°
2026-05-04 12:20 52.74685 -1.35412 20376 ft 367 kts 327°
2026-05-04 12:20 52.76852 -1.37620 19938 ft 365 kts 327°
2026-05-04 12:21 52.78996 -1.39812 19515 ft 362 kts 327°
2026-05-04 12:21 52.81110 -1.41978 19082 ft 360 kts 327°
2026-05-04 12:21 52.83216 -1.44138 18682 ft 357 kts 327°
2026-05-04 12:21 52.85319 -1.46297 18278 ft 355 kts 327°
2026-05-04 12:22 52.87412 -1.48443 17820 ft 353 kts 327°
2026-05-04 12:22 52.89489 -1.50572 17380 ft 350 kts 327°
2026-05-04 12:22 52.91016 -1.52142 17060 ft 348 kts 327°
2026-05-04 12:22 52.93067 -1.54253 16632 ft 346 kts 327°
2026-05-04 12:23 52.95104 -1.56355 16209 ft 344 kts 327°
2026-05-04 12:23 52.97128 -1.58446 15817 ft 342 kts 327°
2026-05-04 12:23 52.99143 -1.60526 15425 ft 340 kts 327°
2026-05-04 12:23 53.01145 -1.62593 15039 ft 338 kts 327°
2026-05-04 12:24 53.03136 -1.64650 14651 ft 336 kts 327°
2026-05-04 12:24 53.05078 -1.66776 14280 ft 333 kts 320°
2026-05-04 12:24 53.06696 -1.69491 13919 ft 330 kts 309°
2026-05-04 12:24 53.08185 -1.72387 13490 ft 328 kts 309°
2026-05-04 12:25 53.09665 -1.75257 13078 ft 326 kts 310°
2026-05-04 12:25 53.11127 -1.78081 12896 ft 317 kts 310°
2026-05-04 12:25 53.12547 -1.80830 12758 ft 308 kts 309°
2026-05-04 12:25 53.13928 -1.83515 12469 ft 304 kts 309°
2026-05-04 12:26 53.15297 -1.86180 12133 ft 301 kts 309°
2026-05-04 12:26 53.16662 -1.88839 11694 ft 303 kts 309°
2026-05-04 12:26 53.18035 -1.91509 11235 ft 305 kts 309°
2026-05-04 12:26 53.19415 -1.94203 10800 ft 306 kts 309°
2026-05-04 12:27 53.20774 -1.96863 10370 ft 306 kts 309°
2026-05-04 12:27 53.22161 -1.99581 9928 ft 307 kts 309°
2026-05-04 12:27 53.23345 -2.02512 9451 ft 306 kts 293°
2026-05-04 12:27 53.23836 -2.05650 9009 ft 305 kts 274°
2026-05-04 12:28 53.23851 -2.09180 8546 ft 304 kts 269°
2026-05-04 12:28 53.23832 -2.12712 8076 ft 304 kts 269°
2026-05-04 12:28 53.23815 -2.16230 7614 ft 303 kts 269°
2026-05-04 12:28 53.23799 -2.19715 7164 ft 295 kts 269°
2026-05-04 12:29 53.23785 -2.23070 6720 ft 283 kts 269°
2026-05-04 12:29 53.23770 -2.26258 6254 ft 273 kts 269°
2026-05-04 12:29 53.23754 -2.29420 5729 ft 265 kts 270°
2026-05-04 12:29 53.23737 -2.32447 5369 ft 253 kts 270°
2026-05-04 12:30 53.23721 -2.35285 4961 ft 236 kts 270°
2026-05-04 12:30 53.23707 -2.37962 4437 ft 226 kts 270°
2026-05-04 12:30 53.23733 -2.40533 3914 ft 218 kts 279°
2026-05-04 12:30 53.24362 -2.42717 3411 ft 207 kts 313°
2026-05-04 12:31 53.25557 -2.43911 2893 ft 200 kts 346°
2026-05-04 12:31 53.26882 -2.43843 2609 ft 185 kts 18°
2026-05-04 12:31 53.27988 -2.42709 2402 ft 199 kts 45°
2026-05-04 12:31 53.28837 -2.41019 2153 ft 184 kts 51°
2026-05-04 12:32 53.29595 -2.39433 1920 ft 168 kts 51°
2026-05-04 12:32 53.30971 -2.36583 1470 ft 148 kts 51°
2026-05-04 12:32 53.31602 -2.35283 1270 ft 140 kts 51°
2026-05-04 12:33 53.32194 -2.34063 1062 ft 131 kts 50°
2026-05-04 12:33 53.32769 -2.32887 743 ft 133 kts 49°
2026-05-04 12:33 53.33334 -2.31709 551 ft 126 kts 51°
2026-05-04 12:33 53.33886 -2.30562 464 ft 128 kts 48°
2026-05-04 12:34 53.34459 -2.29400 335 ft 130 kts 49°
2026-05-04 12:34 53.35013 -2.28244 237 ft 119 kts 51°
2026-05-04 12:34 53.35390 -2.27478 238 ft 74 kts 52°
2026-05-04 12:34 53.35607 -2.27025 241 ft 33 kts 49°
2026-05-04 12:35 53.35752 -2.26740 245 ft 31 kts 51°
2026-05-04 12:35 53.35843 -2.26687 241 ft 7 kts 351°
2026-05-04 12:35 53.35880 -2.26699 236 ft 0 kts 350°
2026-05-04 12:37 53.35886 -2.26701 240 ft 4 kts 349°
2026-05-04 12:37 53.35919 -2.26762 234 ft 8 kts 280°
2026-05-04 12:37 53.35898 -2.26842 234 ft 7 kts 238°
2026-05-04 12:37 53.35869 -2.26900 233 ft 6 kts 229°
2026-05-04 12:38 53.35844 -2.26949 233 ft 5 kts 229°
2026-05-04 12:38 53.35822 -2.27009 233 ft 7 kts 240°
2026-05-04 12:38 53.35795 -2.27109 234 ft 10 kts 265°
2026-05-04 12:38 53.35823 -2.27203 233 ft 8 kts 293°
2026-05-04 12:39 53.35809 -2.27282 234 ft 7 kts 232°
2026-05-04 12:39 53.35781 -2.27335 233 ft 6 kts 229°
2026-05-04 12:39 53.35742 -2.27414 233 ft 10 kts 231°
2026-05-04 12:39 53.35705 -2.27489 233 ft 7 kts 230°
2026-05-04 12:40 53.35676 -2.27550 233 ft 9 kts 234°
2026-05-04 12:40 53.35692 -2.27621 233 ft 7 kts 342°
2026-05-04 12:40 53.35741 -2.27652 233 ft 8 kts 339°
2026-05-04 12:40 53.35774 -2.27673 235 ft 8 kts 336°
2026-05-04 12:41 53.35817 -2.27725 233 ft 8 kts 330°
2026-05-04 12:41 53.35918 -2.27728 233 ft 21 kts
2026-05-04 12:41 53.36027 -2.27809 233 ft 18 kts 318°
2026-05-04 12:41 53.36121 -2.27938 233 ft 18 kts 313°
2026-05-04 12:42 53.36199 -2.28071 233 ft 15 kts 314°
2026-05-04 12:42 53.36264 -2.28181 233 ft 1 kts 315°
2026-05-04 12:42 53.36265 -2.28183 233 ft 0 kts 315°
2026-05-04 12:43 53.36299 -2.28242 233 ft 17 kts 313°
2026-05-04 12:43 53.36384 -2.28389 233 ft 12 kts 316°
2026-05-04 12:43 53.36431 -2.28490 233 ft 10 kts 307°
2026-05-04 12:44 53.36477 -2.28572 233 ft 9 kts 314°
2026-05-04 12:44 53.36517 -2.28641 233 ft 7 kts 314°
2026-05-04 12:44 53.36550 -2.28699 233 ft 6 kts 313°
2026-05-04 12:44 53.36588 -2.28765 233 ft 11 kts 320°
2026-05-04 12:45 53.36644 -2.28750 233 ft 8 kts 56°
2026-05-04 12:45 53.36678 -2.28651 233 ft 12 kts 45°
2026-05-04 12:45 53.36723 -2.28579 233 ft 3 kts 48°
2026-05-04 12:45 53.36712 -2.28535 233 ft 7 kts 139°
2026-05-04 12:46 53.36688 -2.28497 233 ft 3 kts 134°
2026-05-04 12:46 53.36686 -2.28493 233 ft 0 kts 133°